Regional Weather Roundup
Issued by NWS Grand Forks, ND

Home | Current Version | Previous Version | Graphics & Text | Print | Product List | Glossary On
Versions: 1 2 3 4 5 6 7 8 9 10 11 12 13 14 15 16 17 18 19 20 21 22 23 24 25 26 27 28 29 30 31 32 33 34 35 36 37 38 39 40 41 42 43 44 45 46 47 48 49 50
000
ASUS43 KFGF 022231
RWRFGF
PRAIRIE TO PINES  WEATHER ROUNDUP
NATIONAL WEATHER SERVICE EASTERN NORTH DAKOTA/GRAND FORKS ND
500 PM CDT TUE SEP 02 2014

 **SATELLITE DATA USED TO AUGMENT SKY COVER AT AUTOMATED STATIONS**
 *****  WEATHER ACROSS EASTERN NORTH DAKOTA  *****

CITY           SKY/WX    TMP DP  RH WIND       PRES   REMARKS
GRAND FORKS    MOSUNNY   79  53  40 SW16G23   29.68F
GRAND FRKS AFB SUNNY     78  56  46 SW15G23   29.69F
GRAND FRKS NWS   N/A     79 N/A N/A SW13        N/A
DEVILS LAKE    SUNNY     77  48  36 W18G28    29.69S
FARGO          SUNNY     78  54  43 SW18G26   29.74F
WAHPETON ARPT  CLEAR     77  52  41 SW15G21   29.79S
$$

 ***** WEATHER ACROSS CENTRAL AND WESTERN NORTH DAKOTA  *****

CITY           SKY/WX    TMP DP  RH WIND       PRES   REMARKS
BISMARCK       PTSUNNY   80  46  30 NW10G18   29.78F
MINOT          SUNNY     76  47  35 W15       29.72S
JAMESTOWN      MOSUNNY   76  54  46 W9        29.75F
MINOT AFB      SUNNY     75  48  38 W15       29.72R
GARRISON         N/A     76  47  35 W15G23    29.75F
WILLISTON      SUNNY     76  41  28 W12       29.75F
DICKINSON      SUNNY     72  45  37 W9        29.79F
HETTINGER      PTSUNNY   73  47  39 W12       29.83F
$$

 *****  OTHER AIRPORT OBSERVATIONS IN OUR AREA  *****

CITY           SKY/WX    TMP DP  RH WIND       PRES   REMARKS
WALHALLA         N/A     70  55  60 CALM      29.66F
GRAFTON AIRPOR FAIR      77  54  44 W18G24    29.66S
VALLEY CITY AR FAIR      75  54  46 W14       29.75S
CANDO          FAIR      75  50  41 W17       29.69S
CAVALIER APRT  MOCLDY    68  59  73 N9        29.66S
GWINNER        CLEAR     81  54  39 SW14      29.78F
SHEYENNE NWR     N/A     79  57  46 SW13      29.95S
ROLLA          FAIR      72  50  46 NW13      29.71S
 ***** THE ABOVE OBSERVATIONS ARE NON NWS ARE NOT QUALITY
       CONTROLLED AND MAY MIS-REPORT RAIN FOR SNOW...
$$

  *****  WEATHER ACROSS NORTHERN MINNESOTA  *****

CITY           SKY/WX    TMP DP  RH WIND       PRES   REMARKS
FLAG ISLAND    PTSUNNY   66  55  68 S5        29.72R
WARROAD        LGT RAIN  70  55  60 CALM      29.72S
ROSEAU         LGT RAIN  70  55  60 CALM      29.72R
HALLOCK        LGT RAIN  61  55  82 N7        29.70R
THF RVR FALLS  MOSUNNY   75  55  50 S21       29.70F
BAUDETTE       SUNNY     71  50  47 SW10      29.72F
WASKISH        SUNNY     73  59  60 SW5       29.74S
CROOKSTON      MOSUNNY   75  57  53 S14G20    29.70F
$$
  *****  WEATHER ACROSS CENTRAL AND WEST MINNESOTA  *****

CITY           SKY/WX    TMP DP  RH WIND       PRES   REMARKS
FOSSTON        SUNNY     75  54  46 S20       29.74F
BEMIDJI        MOSUNNY   73  53  49 SW13G18   29.76F
PARK RAPIDS    MOSUNNY   76  51  41 SW18G26   29.80F
ELBOW LAKE     FAIR      76  55  47 SW13G18   29.82S
WADENA         MOSUNNY   75  55  50 SW15      29.81F
DETROIT LAKES  SUNNY     75  50  41 SW9       29.79F
MOORHEAD       SUNNY     79  55  44 SW10G20   29.75F
FERGUS FALLS   SUNNY     79  46  31 W9G21     29.79S
MORRIS MN      SUNNY     81  54  39 SW10      29.83S
STAPLES        SUNNY     73  52  46 SW12      29.82F
$$
  *****  WEATHER ELSEWHERE ACROSS MINNESOTA  *****

CITY           SKY/WX    TMP DP  RH WIND       PRES   REMARKS
DULUTH         PTSUNNY   74  50  42 SW16G24   29.81S
INTRNTL FALLS  MOSUNNY   69  50  50 W5        29.74F
ELY            RAIN      55  52  88 SW15G30   29.83R
CLOQUET        MOSUNNY   73  48  40 SW15      29.82S
WHEATON        SUNNY     75  54  46 SW10G18   29.82F
BRAINERD       MOSUNNY   74  51  44 SW21G26   29.82F
HIBBING        CLOUDY    59  54  83 E3        29.82F
ALEXANDRIA     SUNNY     76  53  44 SW12      29.86F
SAINT CLOUD    MOSUNNY   78  50  37 SW12      29.86S
MINNEAPOLIS    MOSUNNY   77  48  35 W14G20    29.88S
$$

  *****  WEATHER ACROSS SOUTH DAKOTA  *****

CITY           SKY/WX    TMP DP  RH WIND       PRES   REMARKS
SIOUX FALLS    MOSUNNY   75  56  51 SW9       29.92F
BROOKINGS      NOT AVBL
WATERTOWN      MOSUNNY   75  54  47 SW17      29.87F
HURON          SUNNY     79  50  36 S12       29.85F
SISSETON         N/A     79  52  38 W16G24    29.80F
ABERDEEN       SUNNY     79  50  36 SW12      29.80F
MITCHELL       SUNNY     78  55  44 S10G20    29.89F
PIERRE         MOSUNNY   84  46  26 SW14      29.80F
MOBRIDGE       MOSUNNY   83  49  30 SW13      29.76F
RAPID CITY     SUNNY     81  48  31 E9        29.85F
$$

  *****  SOME WEATHER IN NEARBY STATES *****

CITY           SKY/WX    TMP DP  RH WIND       PRES   REMARKS
GLASGOW MT     MOSUNNY   74  42  31 SW10      29.74F
GREAT FALLS MT SUNNY     77  37  23 SW12G25   29.73F
CHEYENNE WY    SUNNY     83  29  14 W13G22    30.02F
SCOTTSBLUFF NE SUNNY     87  42  20 N9        29.90F
OMAHA NE       MOSUNNY   80  55  42 W10       29.96F
DES MOINES IA  MOSUNNY   80  58  46 W7        29.94F
DAVENPORT IA   PTSUNNY   76  61  59 W9        29.93F
CHICAGO IL     MOSUNNY   80  55  42 W10       29.90S
EAU CLAIRE WI  SUNNY     77  51  40 W13       29.88S
LA CROSSE WI   MOSUNNY   80  59  48 W10       29.89S
$$

  *****  SOME NATIONAL WEATHER *****

CITY           SKY/WX    TMP DP  RH WIND       PRES   REMARKS
LA GUARDIA NY  PTSUNNY   91  65  41 SW13      29.79F HX  93
RALEIGH NC     MOSUNNY   82  70  65 SW21G30   29.97R
ATLANTA GA     CLOUDY    81  70  69 NE3       30.02S
NEW ORLEANS LA PTSUNNY   87  73  62 S9        29.99S THUNDER HX  94
OKLAHOMA CITY  MOSUNNY   91  69  48 SE22G29   29.89F HX  96
ALBUQUERQUE NM MOSUNNY   91  33  12 SE6       30.06F
SALT LAKE CITY MOSUNNY   88  40  18 NW10      29.90F
LOS ANGELES CA MOSUNNY   77  63  61 W14       29.81F
BOISE ID       SUNNY     86  33  15 N8        29.80F
SEATTLE WA     PTSUNNY   65  53  65 SW13G26   29.86F
$$

*** WEATHER ACROSS MANITOBA...SASKATCHEWAN AND ONTARIO ***
                ***ONTARIO***

CITY           SKY/WX    TMP DP  RH WIND       PRES   REMARKS
GERALDTON      MOSUNNY   68  48  49 W12       29.71R
THUNDER BAY    PTSUNNY   75  50  41 W12       29.73F
SIOUX LOOKOUT  PTSUNNY   70  48  46 NW9       29.70F
TORONTO        MOSUNNY   70  66  88 SW5       29.82S
BIG TROUT LK     N/A     64  52  63 MISG      29.58S
PICKLE LAKE    PTSUNNY   66  48  52 W12       29.65F
DRYDEN         MOSUNNY   70  46  43 W10G20    29.71F
KENORA         PTSUNNY   68  52  56 SW10      29.72R
$$
                *** MANITOBA***

CITY           SKY/WX    TMP DP  RH WIND       PRES   REMARKS
BRANDON        MOSUNNY   72  52  49 NW12      29.69S
DAUPHIN        CLOUDY    64  50  59 W14G23    29.67S
ISLAND LAKE    LGT RAIN  57  54  88 S6        29.59S
PILOT MOUND      N/A     75  50  41 NW12G17     N/A
THE PAS        MOSUNNY   66  46  48 W13G20    29.61F
THOMPSON       LGT RAIN  55  54  94 NW6       29.54R
WINNIPEG       MOSUNNY   66  54  63 CALM      29.69S
LYNN LAKE      CLOUDY    57  45  62 MISG      29.61R
CHURCHILL      PTSUNNY   54  46  76 SE18G24   29.55R
GILLAM         MOSUNNY  N/A N/A N/A W6          N/A
$$
                ***SASKATCHEWAN***

CITY           SKY/WX    TMP DP  RH WIND       PRES   REMARKS
ESTEVAN        PTSUNNY   72  46  40 NW10      29.74F
KINDERSLEY     LGT RAIN  61  48  63 NE13      29.74S
LLOYDMINSTER   PTSUNNY   59  46  63 SW9       29.71S
PRINCE ALBERT  PTSUNNY   63  48  59 N3        29.69
REGINA         MOSUNNY   68  48  49 NW14      29.74S
YORKTON        MOSUNNY   64  48  55 NW8       29.70S
N. BATTLEFORD  MOSUNNY   64  48  55 NW3       29.73S
LA RONGE       PTSUNNY   64  43  45 W9        29.66S
SASKATOON      CLOUDY    66  45  45 W10       29.72F
SWIFT CURRENT  CLOUDY    66  37  34 VRB2      29.70F
$$
NOTE: THESE ARE AUTOMATED STATIONS WITH LIMITED QUALITY CONTROL
      "FAIR" INDICATES FEW OR NO CLOUDS BELOW 12,000 FEET WITH NO
      SIGNIFICANT WEATHER AND/OR OBSTRUCTIONS TO VISIBILITY.
      SKY/WX - SKY CONDITION AND SIGNIFICANT WEATHER.
      TMP - AIR TEMPERATURE.    DP   - DEWPOINT TEMPERATURE.
      RH  - RELATIVE HUMIDITY.  PRES - PRESSURE.
      HX  - HEAT INDEX.         WCI  - WIND CHILL INDEX.
$



USA.gov is the U.S. government's official web portal to all federal, state and local government web resources and services.